Location: Kumla
(59.1265°N, 15.1401°E)
Time: 17:41:50
(UTC+01:00)

Altair - Pass Details

Date: 05 December 2023
Orbit: 1501 x 1682 km, 47.2° (Epoch: 25 February)

Event Time Altitude Azimuth Distance (km) Brightness Sun altitude
Rises 10:10:34 0° 241° (WSW) 4,786 10.2 6.0°
Reaches altitude 10° 10:13:56 10° 234° (SW) 3,776 9.8 6.2°
Maximum altitude 10:22:27 39° 171° (S) 2,168 9.4 6.5°
Drops below altitude 10° 10:30:44 10° 107° (ESE) 3,673 10.1 6.9°
Sets 10:33:58 0° 100° (E) 4,644 10.4 7.0°
